Location: Detroit
(42.3310°N, 83.0460°W)
Time: 00:56:47
(UTC-04:00)

A-11 Canister half - Pass Details

Date: 08 February 2023
Orbit: 1526 x 1682 km, 47.3° (Epoch: 20 March)

Event Time Altitude Azimuth Distance (km) Brightness Sun altitude
Rises 05:58:35 0° 250° (WSW) 4,681 - -18.8°
Reaches altitude 10° 06:01:38 10° 251° (WSW) 3,693 - -18.2°
Exits shadow 06:04:09 21° 253° (WSW) 2,904 9.9 -17.8°
Maximum altitude 06:10:57 81° 339° (NNW) 1,547 8.9 -16.5°
Drops below altitude 10° 06:20:23 10° 68° (ENE) 3,730 12.0 -14.8°
Sets 06:23:29 0° 69° (ENE) 4,730 12.7 -14.2°
